This is the latest recevied weather packets stored in our database for station/object OH1KK. If no packets are shown the sender has not sent any weather packets the latest 10 day(s).
| Time | Temp. | Humidity | Pressure | Rain* | Wind** | Luminosity | Snow |
|---|---|---|---|---|---|---|---|
| 1777665877 | 8.89° C | 57% | 1005 hPa | 0 mm | - | - | - |
| 1777664962 | 10° C | 52% | 1005 hPa | 0 mm | - | - | - |
| 1777664046 | 11.11° C | 50% | 1005 hPa | 0 mm | - | - | - |
| 1777663192 | 11.67° C | 49% | 1005.1 hPa | 0 mm | - | - | - |
| 1777662277 | 12.22° C | 48% | 1005.3 hPa | 0 mm | - | - | - |
| 1777661362 | 12.22° C | 48% | 1005.2 hPa | 0 mm | - | - | - |
| 1777660447 | 12.78° C | 46% | 1005 hPa | 0 mm | - | - | - |
| 1777659593 | 13.33° C | 45% | 1005.3 hPa | 0 mm | - | - | - |
| 1777657767 | 14.44° C | 43% | 1005.5 hPa | 0 mm | - | - | - |
| 1777656849 | 15° C | 43% | 1005.3 hPa | 0 mm | - | - | - |
| 1777655995 | 15° C | 44% | 1005.5 hPa | 0 mm | - | - | - |
| 1777654165 | 15° C | 44% | 1005.5 hPa | 0 mm | - | - | - |
| 1777653250 | 16.11° C | 42% | 1005.6 hPa | 0 mm | - | - | - |
| 1777652396 | 16.11° C | 43% | 1005.5 hPa | 0 mm | - | - | - |
| 1777651480 | 16.67° C | 42% | 1005.7 hPa | 0 mm | - | - | - |
| 1777650566 | 16.67° C | 42% | 1005.7 hPa | 0 mm | - | - | - |
| 1777649651 | 16.67° C | 41% | 1005.9 hPa | 0 mm | - | - | - |
| 1777648797 | 16.67° C | 41% | 1006 hPa | 0 mm | - | - | - |
| 1777647882 | 17.22° C | 41% | 1006 hPa | 0 mm | - | - | - |
| 1777646967 | 16.67° C | 41% | 1006.1 hPa | 0 mm | - | - | - |
| 1777646051 | 17.22° C | 40% | 1006.1 hPa | 0 mm | - | - | - |
| 1777645197 | 17.22° C | 41% | 1006.1 hPa | 0 mm | - | - | - |
| 1777644282 | 17.22° C | 41% | 1006.6 hPa | 0 mm | - | - | - |
| 1777643367 | 16.67° C | 42% | 1006.7 hPa | 0 mm | - | - | - |
| 1777642452 | 17.22° C | 41% | 1006.8 hPa | 0 mm | - | - | - |
* Rain latest hour (hover to see other rain measurements)
** Current wind speed in m/s (hover to see current wind gust speed)